[[{"header":{"parameterUnit":"m.s-1","parameterCategory":1,"la1":30.2991,"la2":30.254,"lo1":-89.0895,"lo2":-89.0444,"dy":0.0017,"dx":0.0017,"nx":28,"ny":28,"refTime":"2025-12-25T03:00:00:Z","depth":0,"parameterNumber":2,"parameterNumberName":"U-component_of_WINDS"},"data":[0,0,0,0,0,0,0,0,0,0,0,0,0,0,0,0,0,0,0,0,0,0,0,0,0,0,0,0,0,0,0,0,0,0,0,0,0,0,0,0,0,0,0,0,0,0,0,0,0,0,0,0,0,0,0,0,0,0,1.9029,1.903,0,1.9122,1.9123,1.9124,1.9132,1.9131,1.913,1.9129,1.9225,1.9228,1.9232,0,0,0,0,0,0,0,0,0,0,0,0,0,1.8858,1.8861,1.9029,1.903,1.9031,1.9122,1.9123,1.9125,1.9132,1.9131,1.913,1.9129,1.9224,1.9228,1.9232,0,0,0,0,0,0,0,0,0,0,0,0,0,1.8939,1.8862,1.9028,1.9046,1.9048,1.9122,1.9123,1.9125,1.9133,1.9131,1.9129,1.9128,1.9223,1.9228,1.9233,1.9295,0,0,1.9249,1.9251,0,0,0,0,0,0,0,0,1.8935,1.8946,1.9042,1.9045,1.9048,1.9114,1.9098,1.9182,1.9133,1.9101,1.9129,1.9127,1.9189,1.9197,1.9218,1.93,1.9304,1.9249,1.9253,1.9255,1.9256,0,0,0,0,0,0,0,1.8929,1.8942,1.9066,1.9044,1.9047,1.9049,1.9059,1.9114,1.9152,1.9103,1.9104,1.9115,1.9191,1.9213,1.922,1.9305,1.9249,1.9254,1.9257,1.9259,1.9443,1.9445,0,0,0,0,0,0,1.892,1.8937,1.9063,1.9068,1.8986,1.9053,1.9065,1.9094,1.9152,1.9159,1.9116,1.9115,1.9205,1.9214,1.9224,1.9301,1.9255,1.926,1.9263,1.9442,1.9444,1.9446,0,0,0,0,0,0,1.8916,1.8931,1.9059,1.9003,1.9019,1.9058,1.9091,1.9097,1.9119,1.9161,1.9168,1.9132,1.9204,1.9216,1.9278,1.9304,1.9262,1.9267,1.944,1.9442,1.9445,1.9455,0,0,0,0,0,0,1.8911,1.893,1.8954,1.9004,1.9022,1.9111,1.9093,1.91,1.9128,1.9128,1.9178,1.9185,1.9204,1.927,1.9283,1.931,1.9271,1.9437,1.9441,1.9444,1.9452,1.9457,1.9462,0,0,0,0,0,1.8905,1.8953,1.8955,1.897,1.9053,1.9112,1.9123,1.9144,1.913,1.9155,1.9182,1.9183,1.9299,1.9276,1.9291,1.932,1.9436,1.944,1.9444,1.945,1.9456,1.9462,0,0,0,0,0,0,1.8905,1.896,1.8963,1.9028,1.9065,1.9114,1.9145,1.915,1.9192,1.919,1.9213,1.9225,1.9285,1.9309,1.9282,1.9384,1.9366,1.9373,1.9366,1.9372,1.9377,1.937,1.9275,0,0,0,0,0,1.8913,1.8956,1.9002,1.9055,1.9074,1.9106,1.9133,1.9145,1.9185,1.9201,1.9233,1.9272,1.9317,1.9346,1.939,1.9456,1.9467,1.9484,1.9489,1.9492,1.9498,1.9535,1.9542,1.9459,1.9459,1.9459,0,0,1.8929,1.8964,1.899,1.9056,1.9086,1.9131,1.9119,1.9167,1.92,1.9209,1.9268,1.9293,1.9338,1.9401,1.9431,1.9423,1.9524,1.9497,1.95,1.9504,1.9539,1.9547,1.9554,1.9461,1.9461,1.946,0,0,1.8981,1.9012,1.9059,1.9091,1.9137,1.9159,1.917,1.9218,1.9235,1.9295,1.9302,1.9342,1.9419,1.9451,1.9477,1.9542,1.9545,1.9556,1.958,1.9616,1.9622,1.9628,1.9651,1.9659,1.9561,1.9561,1.9561,0,1.8995,1.9062,1.9083,1.9131,1.916,1.9169,1.9218,1.9247,1.9305,1.9325,1.9316,1.9413,1.9444,1.9515,1.9531,1.9552,1.9566,1.9549,1.962,1.9626,1.9632,1.9653,1.9662,1.9562,1.9562,1.9562,1.9562,0,1.9077,1.9123,1.9156,1.9212,1.9245,1.9293,1.9321,1.9352,1.9362,1.9384,1.9446,1.9483,1.9535,1.9553,1.9563,1.9626,1.9619,1.9615,1.9597,1.964,1.9661,1.967,1.9564,1.9563,1.9563,1.9563,0,0,1.913,1.9198,1.921,1.9235,1.9288,1.9324,1.9373,1.9423,1.9449,1.9489,1.953,1.9596,1.9592,1.9621,1.9635,1.9667,1.9715,1.9658,1.9659,1.9667,1.9786,1.9788,1.9797,1.9717,1.9719,1.9721,1.9782,0,1.9187,1.9273,1.9294,1.9368,1.9411,1.9421,1.9463,1.95,1.9523,1.9563,1.9588,1.9634,1.9625,1.9643,1.9675,1.9702,1.9739,1.9698,1.9755,1.9757,1.9743,1.9809,1.9811,1.9867,1.979,1.9791,1.9792,0,1.9265,1.9307,1.9385,1.9432,1.9451,1.9488,1.9536,1.9575,1.9617,1.9631,1.9665,1.9676,1.9727,1.9707,1.9778,1.9749,1.9774,1.9792,1.9794,1.9799,1.9777,1.9815,1.9886,1.9893,1.9806,1.9804,1.9804,0,1.9295,1.9371,1.9428,1.9449,1.9506,1.9532,1.9557,1.9598,1.9627,1.9669,1.9688,1.9736,1.9762,1.9798,1.9822,1.9806,1.989,1.9873,1.9903,1.9903,1.992,1.9918,1.9994,1.9937,1.9937,1.9937,1.9937,0,1.9356,1.9403,1.9442,1.9476,1.9529,1.9554,1.9606,1.9631,1.9667,1.9707,1.9719,1.9756,1.9786,1.9827,1.9846,1.9901,1.9913,1.9925,1.993,1.9924,1.9922,1.994,1.9936,1.9939,1.9939,1.9938,1.9938,0,1.9398,1.9426,1.9488,1.9537,1.955,1.9587,1.9629,1.9663,1.9686,1.9736,1.9749,1.9786,1.9835,1.9863,1.9924,1.9937,1.9998,2.0001,1.9984,1.9986,2.0014,2.0011,2.0104,2.0117,2.0052,2.0052,2.0053,0,1.9434,1.947,1.9523,1.9551,1.9576,1.962,1.965,1.9676,1.9706,1.9757,1.9785,1.9835,1.9876,1.9954,1.9986,2.0034,2.0037,2.0067,2.0044,2.0037,2.0037,2.0034,2.0037,2.007,2.007,2.0071,2.0071,0,1.9495,1.9508,1.955,1.9598,1.9633,1.9672,1.971,1.9732,1.9764,1.9798,1.9848,1.988,1.9944,1.9993,2.0043,2.0069,2.0075,2.0078,2.0088,2.0081,2.0069,2.0075,1.9993,2.0076,2.0075,2.0075,2.0075,2.0075,1.9535,1.9568,1.961,1.9657,1.9689,1.9725,1.9759,1.9787,1.9829,1.9883,1.9896,1.9948,1.999,2.0058,2.0085,2.0127,2.0122,2.0136,2.0139,2.0142,2.0142,2.0064,2.0137,2.0136,2.0136,2.0136,2.0136,0,1.9596,1.9624,1.9667,1.9721,1.9758,1.9762,1.9805,1.9835,1.9882,1.992,1.9961,2.0019,2.0067,2.0103,2.0152,2.0178,2.0183,2.019,2.0188,2.0194,2.0145,2.0131,2.0186,2.0186,2.0186,2.0186,2.0186,2.0186,1.9632,1.9688,1.9705,1.9777,1.9805,1.9857,1.9881,1.9914,1.9945,2.0009,2.0049,2.0072,2.011,2.0162,2.0206,2.0216,2.0233,2.024,2.025,2.0203,2.0197,2.0192,2.018,2.0244,2.0244,2.0295,2.0296,2.0296]},{"header":{"parameterUnit":"m.s-1","parameterCategory":1,"la1":30.2991,"la2":30.254,"lo1":-89.0895,"lo2":-89.0444,"dy":0.0017,"dx":0.0017,"nx":28,"ny":28,"refTime":"2025-12-25T03:00:00:Z","depth":0,"parameterNumber":3,"parameterNumberName":"V-component_of_WINDS"},"data":[0,0,0,0,0,0,0,0,0,0,0,0,0,0,0,0,0,0,0,0,0,0,0,0,0,0,0,0,0,0,0,0,0,0,0,0,0,0,0,0,0,0,0,0,0,0,0,0,0,0,0,0,0,0,0,0,0,0,1.4561,1.4561,0,1.4566,1.4566,1.4566,1.4562,1.4562,1.4562,1.4561,1.4566,1.4566,1.4566,0,0,0,0,0,0,0,0,0,0,0,0,0,1.4547,1.4547,1.4561,1.4561,1.4561,1.4566,1.4566,1.4566,1.4562,1.4562,1.4562,1.4561,1.4566,1.4566,1.4566,0,0,0,0,0,0,0,0,0,0,0,0,0,1.4552,1.4547,1.4561,1.4559,1.4559,1.4566,1.4566,1.4566,1.4562,1.4562,1.4561,1.4561,1.4566,1.4566,1.4566,1.4574,0,0,1.4568,1.4568,0,0,0,0,0,0,0,0,1.4552,1.4553,1.456,1.456,1.4559,1.4563,1.4562,1.4569,1.4562,1.4561,1.4561,1.4561,1.4565,1.4565,1.4567,1.4574,1.4574,1.4568,1.4568,1.4568,1.4568,0,0,0,0,0,0,0,1.4552,1.4553,1.4563,1.456,1.456,1.4558,1.4559,1.4564,1.4564,1.4561,1.4561,1.4561,1.4565,1.4566,1.4567,1.4574,1.4568,1.4568,1.4568,1.4568,1.4588,1.4588,0,0,0,0,0,0,1.4551,1.4552,1.4562,1.4563,1.4555,1.4559,1.4559,1.4562,1.4564,1.4564,1.4562,1.4561,1.4566,1.4566,1.4567,1.4576,1.4568,1.4568,1.4569,1.4588,1.4588,1.4588,0,0,0,0,0,0,1.4551,1.4552,1.4562,1.4557,1.4559,1.4559,1.4562,1.4562,1.4564,1.4565,1.4565,1.4563,1.4566,1.4566,1.4572,1.4576,1.4569,1.4569,1.4587,1.4588,1.4588,1.4594,0,0,0,0,0,0,1.4551,1.4552,1.4555,1.4558,1.4559,1.4568,1.4563,1.4563,1.4565,1.4564,1.4566,1.4566,1.4566,1.4572,1.4573,1.4576,1.4569,1.4587,1.4587,1.4588,1.4593,1.4594,1.4595,0,0,0,0,0,1.455,1.4557,1.4556,1.4557,1.4563,1.4568,1.4569,1.4568,1.4565,1.4568,1.4569,1.4566,1.4576,1.4572,1.4573,1.4577,1.4587,1.4587,1.4588,1.4593,1.4594,1.4595,0,0,0,0,0,0,1.4555,1.4557,1.4556,1.4563,1.4565,1.4567,1.4571,1.4569,1.4572,1.4572,1.457,1.4571,1.4577,1.4578,1.4574,1.4585,1.4581,1.4581,1.4584,1.4585,1.4586,1.4586,1.457,0,0,0,0,0,1.4556,1.4561,1.4562,1.4569,1.457,1.457,1.4572,1.4572,1.4574,1.4575,1.4576,1.4578,1.4581,1.4583,1.4586,1.4593,1.4594,1.4597,1.4598,1.4598,1.4599,1.4603,1.4604,1.459,1.459,1.459,0,0,1.456,1.4562,1.4565,1.4569,1.4571,1.4575,1.4571,1.4575,1.4578,1.4575,1.4581,1.4582,1.4584,1.459,1.4593,1.4591,1.4603,1.4599,1.46,1.46,1.4604,1.4605,1.4606,1.4591,1.4591,1.459,0,0,1.4569,1.4571,1.4576,1.4578,1.4581,1.4581,1.4582,1.4585,1.4585,1.4591,1.4588,1.4592,1.4598,1.4599,1.4601,1.461,1.4608,1.4611,1.4616,1.462,1.4621,1.4622,1.4625,1.4626,1.4612,1.4612,1.4612,0,1.4573,1.4579,1.4579,1.4584,1.4586,1.4584,1.4589,1.4591,1.4594,1.4596,1.4593,1.4601,1.4602,1.4609,1.4611,1.4612,1.4614,1.4611,1.4621,1.4622,1.4623,1.4626,1.4627,1.4612,1.4612,1.4612,1.4612,0,1.4584,1.4589,1.4593,1.4597,1.4599,1.4604,1.4604,1.4607,1.4606,1.4606,1.4612,1.4613,1.4617,1.4618,1.4617,1.4625,1.4624,1.4621,1.4617,1.4624,1.4627,1.4629,1.4613,1.4613,1.4613,1.4612,0,0,1.4596,1.4599,1.4601,1.4603,1.4605,1.4609,1.4613,1.4617,1.4619,1.4622,1.4626,1.4631,1.4628,1.463,1.4629,1.4633,1.464,1.463,1.463,1.4631,1.4648,1.465,1.4651,1.4639,1.4639,1.4639,1.4648,0,1.4604,1.4613,1.4613,1.4621,1.4625,1.4623,1.4627,1.4629,1.463,1.4633,1.4633,1.4637,1.4634,1.4635,1.4638,1.4638,1.4643,1.4638,1.4642,1.4642,1.4641,1.4653,1.4654,1.4662,1.4649,1.4649,1.4649,0,1.4616,1.4619,1.4628,1.463,1.4632,1.4635,1.4639,1.4642,1.4644,1.4644,1.4646,1.4645,1.465,1.4645,1.4652,1.4648,1.465,1.465,1.465,1.4651,1.4646,1.4653,1.4665,1.4666,1.4651,1.4651,1.4651,0,1.4623,1.4629,1.4635,1.4637,1.464,1.4642,1.4644,1.4646,1.4648,1.4651,1.4652,1.4655,1.4657,1.4659,1.4659,1.4656,1.4665,1.4661,1.4665,1.4665,1.4667,1.4667,1.4679,1.4668,1.4668,1.4668,1.4668,0,1.4633,1.4638,1.4639,1.4642,1.4648,1.4648,1.4653,1.4654,1.4656,1.4659,1.4658,1.4661,1.466,1.4664,1.4663,1.4668,1.4669,1.4669,1.4669,1.4669,1.4669,1.467,1.4669,1.4669,1.4669,1.4668,1.4668,0,1.4642,1.4642,1.4649,1.4651,1.4652,1.4656,1.4658,1.4661,1.4661,1.4666,1.4667,1.4667,1.4671,1.4671,1.4675,1.4675,1.4681,1.468,1.468,1.468,1.4684,1.4684,1.4698,1.4699,1.4687,1.4688,1.4688,0,1.4648,1.4652,1.4655,1.4657,1.4659,1.4662,1.4665,1.4665,1.4667,1.467,1.4673,1.4676,1.4679,1.4685,1.4686,1.4689,1.4688,1.4693,1.4688,1.4689,1.4688,1.4688,1.4688,1.4693,1.4694,1.4694,1.4694,0,1.4658,1.4658,1.4662,1.4666,1.4669,1.4671,1.4674,1.4676,1.4676,1.4679,1.4683,1.4685,1.4689,1.4693,1.4696,1.4697,1.4695,1.4695,1.4696,1.4696,1.4696,1.4696,1.4682,1.4695,1.4695,1.4695,1.4695,1.4694,1.4665,1.4669,1.4672,1.4676,1.4678,1.468,1.4683,1.4685,1.4688,1.4692,1.4691,1.4696,1.4698,1.4702,1.4703,1.4706,1.4704,1.4706,1.4706,1.4707,1.4707,1.4696,1.4707,1.4707,1.4707,1.4707,1.4707,0,1.4676,1.4677,1.4681,1.4685,1.4688,1.4687,1.469,1.4692,1.4696,1.4699,1.4702,1.4706,1.4709,1.471,1.4714,1.4716,1.4715,1.4717,1.4717,1.4717,1.4709,1.4707,1.4717,1.4717,1.4717,1.4717,1.4717,1.4717,1.4681,1.4687,1.4688,1.4694,1.4696,1.4701,1.4702,1.4704,1.4706,1.4711,1.4714,1.4715,1.4717,1.472,1.4723,1.4724,1.4725,1.4727,1.4726,1.4719,1.4717,1.4716,1.4715,1.4727,1.4727,1.4734,1.4735,1.4735]}]]